Duncan, OK

12:29 PM CST on November 15, 2019 (GMT -0600)
Halliburton

Weather History for KDUC - September, 2019

Change the Weather History Date:

Sunday, September 8, 2019

  Actual Average (WUND) Record (WUND)
Temperature  
Mean Temperature 82 °F -  
Max Temperature 95 °F - - (-1)
Min Temperature 68 °F - - (-1)
Cooling Degree Days 16    
Growing Degree Days 32 (Base 50)    
Moisture  
Dew Point 63 °F    
Average Humidity 54    
Maximum Humidity 77    
Minimum Humidity 32    
Precipitation  
Precipitation 0.00 in - - ()
Sea Level Pressure  
Sea Level Pressure 29.94 in    
Wind  
Wind Speed 8 mph (SSE)    
Max Wind Speed 21 mph    
Max Gust Speed 24 mph    
Visibility 10 miles    
Events      
Averages and records for this station are not official NWS values.
T = Trace of Precipitation, MM = Missing Value Source: NWS Daily Summary

Daily Weather History Graph

Daily Weather History Graph

Search for Another Location

Airport or City:

Astronomy

Sep. 08, 2019 Rise Set
Actual Time 7:09 AM CDT 7:48 PM CDT
Civil Twilight 6:44 AM CDT 8:14 PM CDT
Nautical Twilight 6:14 AM CDT 8:43 PM CDT
Astronomical Twilight 5:43 AM CDT 9:14 PM CDT
Moon 4:46 PM CDT (9/8) 2:02 AM CDT (9/8)
Length of Visible Light 13h 29m
Length of Day
12h 38m
Waxing Gibbous, 75% of the Moon is Illuminated
Sep 8
Waxing Gibbous
Sep 13
Full
Sep 21
Last Quarter
Sep 28
New
Oct 5
First Quarter

Hourly Weather History & Observations

Time (CDT) Temp. Heat Index Dew Point Humidity Pressure Visibility Wind Dir Wind Speed Gust Speed Precip Events Conditions
12:15 AM 76.3 °F - 64.6 °F 67% 29.96 in 10.0 mi SE 4.6 mph - N/A   Clear
12:35 AM 75.9 °F - 64.8 °F 68% 29.96 in 10.0 mi SE 4.6 mph - N/A   Clear
12:55 AM 75.4 °F - 64.2 °F 68% 29.95 in 10.0 mi SSE 5.8 mph - N/A   Clear
1:15 AM 75.0 °F - 63.7 °F 68% 29.95 in 10.0 mi SSE 4.6 mph - N/A   Clear
1:35 AM 75.0 °F - 63.3 °F 67% 29.96 in 10.0 mi SSE 4.6 mph - N/A   Clear
1:55 AM 74.1 °F - 63.3 °F 69% 29.95 in 10.0 mi SSE 6.9 mph - N/A   Clear
2:15 AM 73.8 °F - 62.8 °F 68% 29.95 in 10.0 mi SE 6.9 mph - N/A   Clear
2:35 AM 73.2 °F - 62.6 °F 69% 29.95 in 10.0 mi SSE 5.8 mph - N/A   Clear
2:55 AM 73.0 °F - 62.2 °F 69% 29.95 in 10.0 mi SSE 5.8 mph - N/A   Clear
3:15 AM 72.5 °F - 61.9 °F 69% 29.95 in 10.0 mi SSE 4.6 mph - N/A   Clear
3:35 AM 72.3 °F - 61.5 °F 69% 29.94 in 10.0 mi SE 5.8 mph - N/A   Clear
3:55 AM 72.0 °F - 61.2 °F 69% 29.94 in 10.0 mi SSE 4.6 mph - N/A   Clear
4:15 AM 71.4 °F - 61.0 °F 70% 29.94 in 10.0 mi SSE 4.6 mph - N/A   Clear
4:55 AM 70.0 °F - 60.8 °F 73% 29.94 in 10.0 mi SE 6.9 mph - N/A   Clear
5:15 AM 70.0 °F - 60.8 °F 73% 29.94 in 10.0 mi SSE 4.6 mph - N/A   Clear
5:35 AM 69.6 °F - 60.4 °F 73% 29.94 in 10.0 mi Calm Calm - N/A   Clear
5:55 AM 70.0 °F - 60.3 °F 71% 29.95 in 10.0 mi ESE 3.5 mph - N/A   Clear
6:15 AM 69.6 °F - 60.6 °F 73% 29.95 in 10.0 mi SE 5.8 mph - N/A   Clear
6:35 AM 69.6 °F - 60.4 °F 73% 29.95 in 10.0 mi SE 4.6 mph - N/A   Clear
6:55 AM 68.5 °F - 61.0 °F 77% 29.96 in 10.0 mi ESE 5.8 mph - N/A   Clear
7:15 AM 68.5 °F - 60.8 °F 76% 29.96 in 10.0 mi ESE 4.6 mph - N/A   Clear
7:35 AM 68.9 °F - 61.3 °F 77% 29.97 in 10.0 mi ESE 5.8 mph - N/A   Clear
7:55 AM 69.6 °F - 62.1 °F 77% 29.97 in 10.0 mi SE 5.8 mph - N/A   Clear
8:15 AM 72.0 °F - 62.6 °F 72% 29.98 in 10.0 mi SE 6.9 mph - N/A   Clear
8:35 AM 73.9 °F - 62.8 °F 68% 29.98 in 10.0 mi SSE 9.2 mph - N/A   Clear
8:55 AM 75.0 °F - 63.0 °F 66% 29.98 in 10.0 mi South 9.2 mph - N/A   Clear
9:15 AM 77.2 °F - 63.7 °F 63% 29.99 in 10.0 mi South 10.4 mph - N/A   Clear
9:35 AM 79.3 °F - 63.9 °F 59% 29.99 in 10.0 mi South 11.5 mph - N/A   Clear
9:55 AM 81.5 °F 83.1 °F 64.4 °F 56% 29.99 in 10.0 mi South 12.7 mph - N/A   Clear
10:15 AM 83.3 °F 84.8 °F 64.8 °F 53% 30.00 in 10.0 mi South 11.5 mph - N/A   Clear
10:35 AM 85.1 °F 86.6 °F 64.8 °F 50% 30.00 in 10.0 mi South 15.0 mph - N/A   Clear
10:55 AM 86.2 °F 88.2 °F 65.5 °F 50% 30.00 in 10.0 mi South 11.5 mph - N/A   Clear
11:15 AM 88.3 °F 90.5 °F 66.0 °F 47% 30.00 in 10.0 mi South 13.8 mph - N/A   Clear
11:35 AM 88.0 °F 89.6 °F 65.1 °F 46% 30.00 in 10.0 mi SSW 10.4 mph - N/A   Clear
11:55 AM 90.0 °F 92.0 °F 65.5 °F 44% 29.99 in 10.0 mi SSW 13.8 mph - N/A   Clear
12:15 PM 91.2 °F 93.7 °F 65.7 °F 43% 29.99 in 10.0 mi SSW 9.2 mph - N/A   Clear
12:35 PM 92.7 °F 94.9 °F 65.3 °F 40% 29.97 in 10.0 mi SSW 12.7 mph - N/A   Scattered Clouds
12:55 PM 92.8 °F 94.3 °F 63.7 °F 38% 29.97 in 10.0 mi SSW 15.0 mph 24.2 mph N/A   Scattered Clouds
1:15 PM 94.3 °F 96.7 °F 65.3 °F 38% 29.96 in 10.0 mi South 18.4 mph - N/A   Clear
1:35 PM 93.9 °F 95.2 °F 63.0 °F 36% 29.96 in 10.0 mi SSW 15.0 mph - N/A   Clear
1:55 PM 93.6 °F 93.8 °F 61.5 °F 34% 29.95 in 10.0 mi SSE 16.1 mph 19.6 mph N/A   Clear
2:15 PM 93.7 °F 94.1 °F 61.5 °F 34% 29.94 in 10.0 mi SSE 12.7 mph 21.9 mph N/A   Scattered Clouds
2:35 PM 95.2 °F 95.5 °F 60.8 °F 32% 29.94 in 10.0 mi South 18.4 mph - N/A   Clear
2:55 PM 94.1 °F 94.2 °F 61.2 °F 33% 29.93 in 10.0 mi SE 15.0 mph 21.9 mph N/A   Clear
3:15 PM 92.5 °F 92.6 °F 61.5 °F 35% 29.93 in 10.0 mi South 15.0 mph - N/A   Clear
3:35 PM 95.0 °F 96.0 °F 62.8 °F 34% 29.92 in 10.0 mi SSE 16.1 mph 23.0 mph N/A   Clear
3:55 PM 94.8 °F 95.3 °F 61.7 °F 33% 29.91 in 10.0 mi SSE 18.4 mph - N/A   Scattered Clouds
4:15 PM 95.0 °F 96.0 °F 62.4 °F 34% 29.91 in 10.0 mi South 17.3 mph - N/A   Clear
4:35 PM 94.3 °F 94.5 °F 61.3 °F 33% 29.91 in 10.0 mi SSE 15.0 mph - N/A   Clear
4:55 PM 94.1 °F 94.6 °F 62.1 °F 34% 29.90 in 10.0 mi SSE 20.7 mph - N/A   Clear
5:15 PM 93.7 °F 94.5 °F 62.6 °F 35% 29.90 in 10.0 mi SSE 18.4 mph - N/A   Clear
5:35 PM 93.6 °F 94.6 °F 62.8 °F 36% 29.89 in 10.0 mi South 18.4 mph - N/A   Clear
5:55 PM 93.2 °F 94.5 °F 63.5 °F 37% 29.89 in 10.0 mi South 20.7 mph - N/A   Clear
6:15 PM 91.2 °F 91.8 °F 62.1 °F 38% 29.90 in 10.0 mi SSE 15.0 mph - N/A   Clear
6:35 PM 91.8 °F 92.2 °F 61.9 °F 37% 29.90 in 10.0 mi South 15.0 mph - N/A   Clear
6:55 PM 91.2 °F 91.1 °F 61.0 °F 36% 29.89 in 10.0 mi SSE 16.1 mph - N/A   Clear
7:15 PM 90.0 °F 89.7 °F 60.6 °F 37% 29.90 in 10.0 mi South 13.8 mph - N/A   Clear
7:35 PM 88.0 °F 87.9 °F 60.8 °F 40% 29.90 in 10.0 mi SSE 9.2 mph - N/A   Clear
7:55 PM 84.7 °F 85.2 °F 61.7 °F 46% 29.90 in 10.0 mi SE 8.1 mph - N/A   Clear
8:15 PM 82.9 °F 84.4 °F 64.0 °F 53% 29.91 in 10.0 mi SE 9.2 mph - N/A   Clear
8:35 PM 82.4 °F 83.9 °F 64.0 °F 54% 29.91 in 10.0 mi SE 9.2 mph - N/A   Clear
8:55 PM 81.7 °F 83.2 °F 63.9 °F 55% 29.91 in 10.0 mi SE 8.1 mph - N/A   Clear
9:15 PM 79.9 °F - 64.4 °F 59% 29.92 in 10.0 mi SE 6.9 mph - N/A   Clear
9:35 PM 80.2 °F 81.9 °F 64.2 °F 58% 29.93 in 10.0 mi ESE 8.1 mph - N/A   Scattered Clouds
9:55 PM 81.0 °F 82.6 °F 64.2 °F 57% 29.93 in 10.0 mi ESE 8.1 mph - N/A   Mostly Cloudy
10:15 PM 80.6 °F 82.2 °F 64.2 °F 57% 29.93 in 10.0 mi ESE 9.2 mph - N/A   Scattered Clouds
10:35 PM 81.5 °F 82.8 °F 63.1 °F 54% 29.93 in 10.0 mi SE 10.4 mph - N/A   Clear
10:55 PM 81.5 °F 82.7 °F 62.8 °F 53% 29.94 in 10.0 mi SE 11.5 mph - N/A   Clear
11:15 PM 80.2 °F 81.5 °F 62.8 °F 55% 29.94 in 10.0 mi SSE 10.4 mph - N/A   Clear
11:35 PM 79.3 °F - 62.6 °F 56% 29.94 in 10.0 mi SSE 11.5 mph - N/A   Clear
11:55 PM 78.8 °F - 62.1 °F 56% 29.95 in 10.0 mi SSE 11.5 mph - N/A   Clear